Back to catalog

CZ-3C DEB

AliveGTO
NORAD 40817·DEBRIS·🇨🇳 China

Launched Oct 31, 2010 from Xichang Satellite Launch Center

Loading…

TLE

StaleSource: Space-Track

Epoch: Sep 12, 2026, 18:12 UTC

1 40817U 10057AJ  26255.75840877  .00000258  00000-0  64819-2 0  9994
2 40817  19.1890 127.4333 7170982 131.8948 316.2952  2.20038958 51226

Track CZ-3C DEB in real time with AllMySat

Download on the App Store